Terug naar catalogus

ONEWEB-0632

ActiefCommunicatiePO
NORAD 56073·PAYLOAD·🇬🇧 United Kingdom

Gelanceerd Mar 26, 2023 vanaf Satish Dhawan Space Centre

Loading…

Volgende Passages (komende 24 uur)

TLE

VersSource: CelesTrak SupGP

Epoch: Sep 14, 2026, 14:54 UTC

1 56073C 23043AD  26257.62102270 -.00002720  00000+0 -72330-2 0  2571
2 56073  87.8984 241.3794 0002183  87.7292 310.7445 13.15552121    17

Volg ONEWEB-0632 in realtime met AllMySat

Download on the App Store